[[{"header":{"parameterUnit":"m.s-1","parameterCategory":1,"la1":30.2991,"la2":30.254,"lo1":-89.0895,"lo2":-89.0444,"dy":0.0017,"dx":0.0017,"nx":28,"ny":28,"refTime":"2025-12-18T09:00:00:Z","depth":0,"parameterNumber":2,"parameterNumberName":"U-component_of_WINDS"},"data":[0,0,0,0,0,0,0,0,0,0,0,0,0,0,0,0,0,0,0,0,0,0,0,0,0,0,0,0,0,0,0,0,0,0,0,0,0,0,0,0,0,0,0,0,0,0,0,0,0,0,0,0,0,0,0,0,0,0,2.0637,2.0638,0,2.0737,2.0738,2.0739,2.0756,2.0756,2.0755,2.0754,2.0856,2.086,2.0863,0,0,0,0,0,0,0,0,0,0,0,0,0,2.0463,2.0466,2.0637,2.0638,2.064,2.0737,2.0738,2.074,2.0757,2.0756,2.0755,2.0754,2.0855,2.0859,2.0864,0,0,0,0,0,0,0,0,0,0,0,0,0,2.0548,2.0467,2.0637,2.066,2.0663,2.0737,2.0738,2.074,2.0757,2.0756,2.0754,2.0753,2.0854,2.0859,2.0864,2.0922,0,0,2.088,2.0883,0,0,0,0,0,0,0,0,2.0543,2.0555,2.0655,2.0658,2.0662,2.0733,2.0715,2.0801,2.0757,2.0721,2.0754,2.0752,2.0816,2.0825,2.0846,2.0927,2.0932,2.0881,2.0884,2.0886,2.0888,0,0,0,0,0,0,0,2.0537,2.055,2.0677,2.0657,2.0661,2.0666,2.0676,2.0731,2.0775,2.0724,2.0726,2.0737,2.0818,2.0841,2.0849,2.0933,2.0881,2.0885,2.0889,2.0891,2.1069,2.1071,0,0,0,0,0,0,2.0527,2.0545,2.0674,2.068,2.0598,2.067,2.0682,2.0712,2.0774,2.0783,2.0738,2.0738,2.0833,2.0843,2.0852,2.0926,2.0886,2.0891,2.0894,2.1068,2.107,2.1071,0,0,0,0,0,0,2.0524,2.0539,2.067,2.0613,2.063,2.0674,2.0707,2.0714,2.0737,2.0785,2.0793,2.0754,2.0832,2.0845,2.0905,2.093,2.0894,2.0898,2.1066,2.1068,2.1071,2.1073,0,0,0,0,0,0,2.0518,2.0537,2.0559,2.0613,2.0633,2.072,2.0709,2.0717,2.0746,2.0747,2.0801,2.0809,2.0832,2.0897,2.0911,2.0937,2.0903,2.1064,2.1067,2.107,2.1071,2.1075,2.1079,0,0,0,0,0,2.0512,2.0555,2.056,2.0575,2.0661,2.0721,2.0733,2.0758,2.0748,2.0771,2.0802,2.0808,2.0925,2.0903,2.0919,2.0946,2.1063,2.1066,2.107,2.1069,2.1074,2.1079,0,0,0,0,0,0,2.0502,2.0563,2.0569,2.063,2.0671,2.0724,2.0754,2.0762,2.0806,2.0805,2.0834,2.0847,2.0906,2.0932,2.0907,2.1007,2.0993,2.1,2.0988,2.0993,2.0997,2.0989,2.0907,0,0,0,0,0,2.0507,2.055,2.0601,2.0651,2.0671,2.0709,2.0736,2.0752,2.0795,2.0812,2.0848,2.0889,2.0936,2.0966,2.1011,2.1075,2.1088,2.1102,2.1106,2.1109,2.1114,2.1152,2.1159,2.1083,2.1083,2.1083,0,0,2.0517,2.0556,2.0581,2.065,2.0683,2.0728,2.0723,2.077,2.0805,2.082,2.0879,2.0907,2.0955,2.1018,2.1048,2.1042,2.1138,2.1113,2.1115,2.1119,2.1156,2.1163,2.117,2.1086,2.1085,2.1085,0,0,2.056,2.0593,2.0639,2.0673,2.0723,2.0749,2.076,2.0813,2.0832,2.0892,2.0905,2.0946,2.1025,2.106,2.1088,2.1147,2.1154,2.1161,2.1181,2.1218,2.1224,2.1229,2.1251,2.1259,2.1166,2.1166,2.1166,0,2.0566,2.0634,2.0661,2.0709,2.0739,2.0756,2.0803,2.0835,2.0898,2.0919,2.0912,2.1013,2.1047,2.1119,2.1133,2.1155,2.117,2.1154,2.1221,2.1226,2.1232,2.1253,2.1261,2.1167,2.1167,2.1167,2.1167,0,2.0641,2.0688,2.0719,2.078,2.0814,2.0861,2.0896,2.0928,2.0942,2.0968,2.1031,2.1073,2.1128,2.1146,2.116,2.1221,2.1216,2.1214,2.1201,2.1239,2.126,2.1268,2.1168,2.1167,2.1167,2.1167,0,0,2.0678,2.0755,2.0766,2.0795,2.0853,2.089,2.0939,2.0994,2.1021,2.1064,2.1107,2.1175,2.1174,2.1206,2.1224,2.1256,2.1302,2.1251,2.1253,2.126,2.1374,2.1375,2.1384,2.1307,2.1309,2.131,2.137,0,2.0728,2.0815,2.0842,2.0915,2.096,2.0978,2.1021,2.1062,2.1089,2.1132,2.1161,2.1209,2.1204,2.1224,2.1257,2.1289,2.1325,2.1285,2.1348,2.135,2.1336,2.1395,2.1396,2.145,2.1378,2.138,2.1381,0,2.0797,2.0843,2.0921,2.0976,2.0995,2.1033,2.1087,2.1127,2.1175,2.1192,2.1229,2.1245,2.1298,2.1282,2.1357,2.1329,2.1357,2.1377,2.138,2.1387,2.1368,2.1404,2.1468,2.1476,2.1394,2.1393,2.1392,0,2.0818,2.0898,2.0956,2.098,2.1045,2.1072,2.11,2.1147,2.1178,2.1225,2.1246,2.1298,2.1327,2.1368,2.1398,2.1383,2.1471,2.1457,2.1488,2.1487,2.1505,2.1503,2.1575,2.1522,2.1522,2.1521,2.1521,0,2.0871,2.0918,2.0967,2.1002,2.1057,2.1088,2.1141,2.117,2.1212,2.1254,2.1273,2.1312,2.135,2.1395,2.1419,2.1478,2.1491,2.1507,2.1513,2.1506,2.1504,2.1524,2.1521,2.1524,2.1523,2.1523,2.1522,0,2.0902,2.0936,2.1001,2.1058,2.1073,2.1111,2.116,2.1196,2.1224,2.1278,2.1293,2.1337,2.1391,2.1426,2.1494,2.1511,2.1576,2.158,2.156,2.1563,2.1592,2.1589,2.1679,2.1694,2.163,2.1631,2.1631,0,2.0934,2.0971,2.1032,2.1062,2.1091,2.1139,2.1172,2.1204,2.1238,2.1297,2.1326,2.1381,2.1428,2.1514,2.1553,2.1606,2.1612,2.164,2.162,2.1613,2.1614,2.1612,2.1616,2.1644,2.1644,2.1644,2.1645,0,2.0987,2.1003,2.1049,2.1102,2.1141,2.1185,2.1228,2.1252,2.1292,2.133,2.1385,2.1421,2.1493,2.1548,2.1606,2.1636,2.1648,2.1651,2.1661,2.1654,2.1641,2.165,2.157,2.1649,2.1648,2.1648,2.1648,2.1648,2.102,2.1055,2.1104,2.1156,2.1192,2.1233,2.127,2.1304,2.1351,2.1412,2.1428,2.1487,2.1537,2.1615,2.1647,2.1694,2.169,2.1705,2.1708,2.1712,2.1713,2.1634,2.1704,2.1704,2.1704,2.1704,2.1704,0,2.1075,2.1108,2.1155,2.1216,2.1258,2.1266,2.1315,2.1349,2.1401,2.1446,2.1491,2.1557,2.1611,2.1656,2.1712,2.1742,2.1749,2.1756,2.1754,2.1761,2.1712,2.1698,2.1749,2.1749,2.1749,2.1749,2.1749,2.1749,2.1108,2.1168,2.119,2.1268,2.1301,2.1359,2.1387,2.1425,2.1462,2.1534,2.158,2.1608,2.1654,2.1714,2.1765,2.1777,2.1797,2.1803,2.1816,2.1769,2.1764,2.1759,2.1747,2.1807,2.1807,2.1861,2.1862,2.1862]},{"header":{"parameterUnit":"m.s-1","parameterCategory":1,"la1":30.2991,"la2":30.254,"lo1":-89.0895,"lo2":-89.0444,"dy":0.0017,"dx":0.0017,"nx":28,"ny":28,"refTime":"2025-12-18T09:00:00:Z","depth":0,"parameterNumber":3,"parameterNumberName":"V-component_of_WINDS"},"data":[0,0,0,0,0,0,0,0,0,0,0,0,0,0,0,0,0,0,0,0,0,0,0,0,0,0,0,0,0,0,0,0,0,0,0,0,0,0,0,0,0,0,0,0,0,0,0,0,0,0,0,0,0,0,0,0,0,0,-7.4543,-7.4545,0,-7.4746,-7.4749,-7.4751,-7.4734,-7.4731,-7.4728,-7.4725,-7.493,-7.4938,-7.4947,0,0,0,0,0,0,0,0,0,0,0,0,0,-7.4138,-7.4146,-7.4542,-7.4545,-7.4548,-7.4746,-7.4749,-7.4751,-7.4735,-7.4731,-7.4727,-7.4724,-7.4928,-7.4937,-7.4947,0,0,0,0,0,0,0,0,0,0,0,0,0,-7.4325,-7.4148,-7.4542,-7.4563,-7.4567,-7.4745,-7.4749,-7.4752,-7.4735,-7.4731,-7.4726,-7.4722,-7.4924,-7.4937,-7.4949,-7.5118,0,0,-7.4987,-7.4992,0,0,0,0,0,0,0,0,-7.4314,-7.434,-7.4557,-7.4562,-7.4567,-7.471,-7.4681,-7.4875,-7.4736,-7.4671,-7.4725,-7.472,-7.4861,-7.4878,-7.4926,-7.5128,-7.5137,-7.4988,-7.4996,-7.5001,-7.5005,0,0,0,0,0,0,0,-7.4301,-7.4331,-7.4623,-7.4561,-7.4566,-7.4562,-7.4584,-7.4718,-7.4789,-7.4677,-7.4676,-7.47,-7.4862,-7.4914,-7.4931,-7.514,-7.4988,-7.4999,-7.5007,-7.5012,-7.5494,-7.5499,0,0,0,0,0,0,-7.4284,-7.432,-7.4617,-7.4629,-7.4427,-7.4573,-7.4597,-7.4669,-7.4788,-7.4802,-7.4704,-7.4699,-7.4895,-7.4916,-7.4938,-7.5146,-7.5001,-7.5013,-7.502,-7.5489,-7.5495,-7.5501,0,0,0,0,0,0,-7.4275,-7.431,-7.4608,-7.4475,-7.4512,-7.4585,-7.4666,-7.4675,-7.4727,-7.4809,-7.4821,-7.4744,-7.4892,-7.4921,-7.5075,-7.5153,-7.5018,-7.503,-7.5482,-7.5491,-7.5498,-7.5563,0,0,0,0,0,0,-7.4264,-7.4307,-7.4373,-7.4476,-7.452,-7.4742,-7.467,-7.4682,-7.4749,-7.4744,-7.485,-7.4863,-7.4891,-7.5056,-7.5087,-7.5168,-7.504,-7.5476,-7.5486,-7.5495,-7.5554,-7.5572,-7.5588,0,0,0,0,0,-7.4249,-7.4382,-7.4376,-7.4412,-7.4603,-7.4746,-7.4771,-7.4802,-7.4756,-7.4822,-7.4875,-7.4859,-7.514,-7.5072,-7.5107,-7.5193,-7.5471,-7.5483,-7.5495,-7.5547,-7.5569,-7.5587,0,0,0,0,0,0,-7.4283,-7.4395,-7.439,-7.456,-7.4644,-7.4743,-7.4827,-7.4824,-7.4921,-7.4913,-7.4946,-7.497,-7.5125,-7.5174,-7.5097,-7.5364,-7.5299,-7.5318,-7.5327,-7.5348,-7.5365,-7.535,-7.505,0,0,0,0,0,-7.4311,-7.4419,-7.4511,-7.4652,-7.4694,-7.4754,-7.4818,-7.4835,-7.4922,-7.4957,-7.5021,-7.5106,-7.5214,-7.5284,-7.5387,-7.5561,-7.5585,-7.5638,-7.5654,-7.5668,-7.5684,-7.5782,-7.5807,-7.554,-7.554,-7.554,0,0,-7.4368,-7.4443,-7.4509,-7.4661,-7.4727,-7.4839,-7.4784,-7.4903,-7.4986,-7.4975,-7.5125,-7.5175,-7.5272,-7.5438,-7.5514,-7.5484,-7.5764,-7.5683,-7.5693,-7.5702,-7.5797,-7.5822,-7.5845,-7.5548,-7.5547,-7.5545,0,0,-7.453,-7.4597,-7.4723,-7.4792,-7.4895,-7.4934,-7.4965,-7.5066,-7.5099,-7.5251,-7.5246,-7.5344,-7.5528,-7.5599,-7.5658,-7.585,-7.5841,-7.5883,-7.597,-7.6066,-7.6087,-7.6106,-7.6175,-7.62,-7.5899,-7.5899,-7.5899,0,-7.4588,-7.4756,-7.4788,-7.491,-7.4977,-7.4974,-7.5103,-7.5168,-7.5299,-7.5345,-7.531,-7.5543,-7.5608,-7.5791,-7.5838,-7.5886,-7.5922,-7.5871,-7.6081,-7.6101,-7.6119,-7.6186,-7.6212,-7.5904,-7.5903,-7.5903,-7.5902,0,-7.4823,-7.494,-7.5029,-7.5158,-7.5236,-7.536,-7.5411,-7.5486,-7.5496,-7.554,-7.5695,-7.5774,-7.5894,-7.5939,-7.5949,-7.6124,-7.6103,-7.6074,-7.6009,-7.6148,-7.6212,-7.6237,-7.591,-7.5909,-7.5907,-7.5906,0,0,-7.501,-7.5158,-7.519,-7.5249,-7.5364,-7.5455,-7.558,-7.5699,-7.5763,-7.5854,-7.596,-7.6117,-7.6093,-7.6161,-7.6179,-7.6263,-7.6412,-7.6224,-7.6227,-7.6258,-7.6612,-7.6633,-7.6662,-7.6407,-7.6412,-7.6416,-7.6604,0,-7.5184,-7.5406,-7.544,-7.5636,-7.5745,-7.5745,-7.5854,-7.5937,-7.5981,-7.608,-7.6128,-7.624,-7.6198,-7.624,-7.6322,-7.6377,-7.6484,-7.6363,-7.6506,-7.651,-7.6482,-7.6695,-7.6718,-7.6892,-7.6629,-7.6633,-7.6636,0,-7.5417,-7.5516,-7.5723,-7.5826,-7.5873,-7.597,-7.6084,-7.6178,-7.6272,-7.6299,-7.6377,-7.6386,-7.6516,-7.6446,-7.6626,-7.6543,-7.6604,-7.664,-7.6647,-7.6662,-7.6582,-7.6717,-7.6948,-7.6974,-7.6676,-7.6672,-7.667,0,-7.5534,-7.572,-7.5868,-7.5919,-7.6042,-7.6111,-7.6165,-7.6255,-7.6325,-7.6424,-7.6471,-7.6583,-7.6644,-7.6731,-7.6771,-7.6716,-7.6949,-7.6882,-7.6975,-7.6975,-7.7024,-7.702,-7.7269,-7.7062,-7.7062,-7.7061,-7.7061,0,-7.5725,-7.5852,-7.5923,-7.6014,-7.6157,-7.6195,-7.6335,-7.6387,-7.6468,-7.657,-7.6576,-7.6671,-7.6718,-7.6821,-7.6853,-7.6998,-7.7025,-7.7051,-7.7058,-7.7051,-7.7048,-7.709,-7.708,-7.7068,-7.7067,-7.7065,-7.7064,0,-7.588,-7.5932,-7.6095,-7.6199,-7.6228,-7.6329,-7.6418,-7.6507,-7.6552,-7.6681,-7.6713,-7.6783,-7.6905,-7.6954,-7.7101,-7.7123,-7.729,-7.7288,-7.7259,-7.7261,-7.7353,-7.7344,-7.7638,-7.7679,-7.7444,-7.7446,-7.7448,0,-7.5998,-7.6096,-7.6212,-7.6282,-7.6339,-7.645,-7.6523,-7.6565,-7.664,-7.6756,-7.6832,-7.6954,-7.7053,-7.7247,-7.7311,-7.7425,-7.7425,-7.7521,-7.7442,-7.7433,-7.7428,-7.7422,-7.7433,-7.7535,-7.7537,-7.7539,-7.7541,0,-7.6203,-7.6225,-7.633,-7.6446,-7.6534,-7.6626,-7.6716,-7.6773,-7.6828,-7.6913,-7.7038,-7.7116,-7.7269,-7.739,-7.7508,-7.7563,-7.7562,-7.7565,-7.7593,-7.7587,-7.7567,-7.758,-7.7299,-7.7558,-7.7556,-7.7555,-7.7554,-7.7553,-7.6344,-7.6432,-7.6529,-7.6646,-7.6719,-7.6804,-7.6894,-7.6951,-7.7057,-7.7185,-7.7204,-7.7338,-7.7432,-7.7591,-7.7651,-7.7757,-7.7732,-7.7772,-7.7783,-7.7792,-7.7799,-7.755,-7.7779,-7.7778,-7.7778,-7.7777,-7.7777,0,-7.6551,-7.6614,-7.6722,-7.6849,-7.6942,-7.6935,-7.7035,-7.7113,-7.7232,-7.732,-7.7419,-7.7564,-7.7682,-7.7757,-7.7876,-7.7947,-7.7949,-7.7977,-7.7972,-7.7985,-7.7813,-7.7778,-7.7973,-7.7973,-7.7973,-7.7973,-7.7972,-7.7972,-7.6669,-7.6819,-7.6853,-7.7039,-7.7101,-7.7234,-7.7292,-7.7371,-7.7442,-7.7604,-7.7703,-7.7752,-7.7835,-7.7961,-7.8069,-7.8088,-7.8132,-7.8162,-7.8179,-7.8017,-7.7997,-7.7977,-7.7944,-7.8171,-7.8171,-7.8342,-7.8343,-7.8345]}]]